Погода в Хух-Хото

Китай     40°49′30″N   111°39′41″E
темп.,
°C
ветер,
м/с
пор.,
м/с
влажн.,
%
обл.,
%
осадки,
мм/ч
давл.,
гПа
погр.,
м
10 мая, пн
пн1023:00+15всв474493 0.0 1006504
02:00+14всв2449100 0.0 1007157
05:00+12с3532100 0.0 1009102
08:00+15св2225100 0.0 1011462
11:00+19вюв2316100 0.0 10102158
14:00+22ю341397 0.0 10072787
17:00+23ю4412100 0.0 10062131
20:00+19юз351520 0.0 1007134
11 мая, вт
вт1123:00+16зюз121898 0.0 100812
02:00+14ю222116 0.0 100715
05:00+13юз112399 0.0 100711
08:00+17юз3617100 0.0 1008444
11:00+24юз8101574 0.0 10051640
14:00+29юз8121549 0.0 10014181
17:00+25зюз6112539 0.1 1000946
20:00+21ссв4837100 0.2 1003285
12 мая, ср
ср1223:00+19св6103313 0.0 1006375
02:00+16ссв4732100 0.0 1007307
05:00+14св474363 0.1 1008284
08:00+17св56338 0.1 1009518
11:00+22всв4428100 0.0 10061227
14:00+26ссз132411 0.0 10021991
17:00+28сз35225 0.0 10001702
20:00+23юз113367 0.1 100021
13 мая, чт
чт1323:00+19ююв5116097 0.4 1005487
02:00+16с227214 1.5 100570
05:00+16всв12645 0.1 100442
08:00+22юз813489 0.1 10041377
11:00+26юз912313 0.0 10022135
14:00+30ююз1011220 0.0 9982724
17:00+30юз1012214 0.0 9963142
20:00+27юз6122771 0.0 997507
14 мая, пт
пт1423:00+23ююз9164537 0.1 9991076
02:00+22юз61152100 0.1 10001383
05:00+19юз61070100 2.3 1001699
08:00+16ссв5844100 5.1 1004486
11:00+15ссв4648100 0.9 1006604
14:00+19с6824100 1.1 10051563
17:00+17с6731100 0.0 10071217
20:00+15ссв353792 0.0 1010445